Regional Weather Roundup
Issued by NWS

Home | Current Version | Previous Version | Graphics & Text | Print | Product List | Glossary On
Versions: 1 2 3 4 5 6 7 8 9 10 11 12 13 14 15 16 17 18 19 20 21 22 23 24 25 26 27 28 29 30 31 32 33 34 35 36 37 38 39 40 41 42 43 44 45 46 47 48 49 50
000
ASUS43 KMPX 042110
RWRMN
WEATHER ROUNDUP FOR MINNESOTA
NATIONAL WEATHER SERVICE TWIN CITIES/CHANHASSEN MN
300 PM CST SUN DEC 04 2016


NOTE: "FAIR" INDICATES FEW OR NO CLOUDS BELOW 12,000 FEET WITH NO
SIGNIFICANT WEATHER AND/OR OBSTRUCTIONS TO VISIBILITY. N/A MEANS
CURRENT SKY AND/OR WEATHER CONDITIONS ARE NOT AVAILABLE.

MNZ060>063-068>070-042200-
   Twin Cities Metro

CITY           SKY/WX    TMP DP  RH WIND       PRES   REMARKS
TWIN CITIES    CLOUDY    37  32  82 SW8       29.76F
ST PAUL        CLOUDY    35  33  92 S9        29.78F WCI  28
CRYSTAL        CLOUDY    36  31  82 S9        29.74F
BLAINE         CLOUDY    37  36  93 S9        29.74F
LAKEVILLE      CLOUDY    36  34  93 CALM      29.77S
EDEN PRAIRIE   CLOUDY    37  32  82 S8        29.75F
SOUTH ST PAUL  CLOUDY    36  33  89 S6        29.77F
LAKE ELMO      CLOUDY    34  32  93 S12       29.77F WCI  25
$$
MNZ001>005-007-008-013>017-022>024-027-028-042200-
   Northwest Minnesota

CITY           SKY/WX    TMP DP  RH WIND       PRES   REMARKS
BEMIDJI        LGT SNOW  32  31  98 S7        29.63S WCI  26
HALLOCK        CLOUDY    34  30  86 W9        29.60S WCI  26
ROSEAU         CLOUDY    34  28  80 S10       29.60S HAZE    WCI  26
WARROAD        CLOUDY    34  28  80 S9        29.61S WCI  26
THIEF RVR FALL FLURRIES  29  27  92 W13       29.63F WCI  19
CROOKSTON      CLOUDY    30  30 100 W9        29.65F WCI  22
FOSSTON        CLOUDY    30  28  93 W12       29.64S FOG     WCI  21
DETROIT LAKES  MIX PCPN  32  32 100 W13       29.67R WCI  22
MOORHEAD       PTSUNNY   34  28  80 W10       29.69F WCI  26
PARK RAPIDS    LGT SNOW  33  29  85 SW7       29.64S FOG     WCI  27
$$
MNZ006-009>011-018-025>026-042200-
   North Central Minnesota

CITY           SKY/WX    TMP DP  RH WIND       PRES   REMARKS
BAUDETTE       CLOUDY    32  30  92 SE9       29.62F WCI  24
FLAG ISLAND    CLOUDY    30  30 100 SE16      29.60F WCI  19
INTL FALLS     CLOUDY    32  29  88 SE7       29.67F FOG     WCI  26
WASKISH        LGT SNOW  34  30  86 SE7       29.64F WCI  28
BIG FORK       LGT SNOW  32  30  93 SE6       29.66F WCI  26
LONGVILLE      LGT SNOW  32  30  93 S6        29.65F WCI  26
GRAND RAPIDS   LGT SNOW  31  30  96 SE8       29.69F FOG     WCI  23
CRANE LAKE     FLURRIES  30  28  93 CALM      29.72F
ORR            MIX PCPN  30  27  86 S9        29.66F WCI  22
COOK           LGT SNOW  30  28  93 SE5       29.70F WCI  25
$$
MNZ012-019>021-037-042200-
   Northeast Minnesota

CITY           SKY/WX    TMP DP  RH WIND       PRES   REMARKS
DULUTH         LGT SNOW  31  29  92 S9        29.71F FOG     WCI  23
ELY            FLURRIES  30  28  93 SE8       29.71F WCI  23
HIBBING        LGT SNOW  30  28  92 SE8       29.69F FOG     WCI  22
EVELETH        MIX PCPN  32  30  93 S7        29.71F WCI  26
DULUTH HARBOR  CLOUDY    34  30  86 S8        29.76F WCI  27
TWO HARBORS    CLOUDY    34  28  80 S3        29.72F
SILVER BAY     LGT SNOW  34  32  93 S7        29.73F WCI  28
GRAND MARAIS     N/A     35  33  92 SE16      29.81F WCI  25
G MARAIS ARPRT LGT SNOW  28  25  86 SE8       29.75F VSB 3/4 WCI  20
$$
MNZ029>031-032-039>041-046>048-054>057-064-042200-
   West Central Minnesota

CITY           SKY/WX    TMP DP  RH WIND       PRES   REMARKS
FERGUS FALLS   PTSUNNY   34  30  86 NW14      29.73F WCI  24
WHEATON        CLOUDY   N/A N/A N/A W8        29.74F
MORRIS         MOSUNNY   36  32  87 W15       29.71S
ALEXANDRIA     CLOUDY    34  32  92 W13       29.70S WCI  25
ELBOW LAKE     CLOUDY    33  32  96 NW13      29.71S WCI  24
WADENA         MIX PCPN  32  30  93 W12       29.66S WCI  23
GLENWOOD       CLOUDY    34  30  86 W16       29.71R WCI  23
APPLETON       PTSUNNY   39  32  75 W15       29.74R
BENSON         CLOUDY    37  30  75 NW12      29.73S
ORTONVILLE     PTSUNNY   37  30  75 W10G17    29.74R
MADISON        SUNNY     41  34  75 W15       29.75S
WILLMAR        CLOUDY    37  34  87 W10       29.74R
$$
MNZ033>034-036-042>043-049>051-058-059-042200-
   Central Minnesota

CITY           SKY/WX    TMP DP  RH WIND       PRES   REMARKS
ST CLOUD       LGT SNOW  34  33  96 SW8       29.71F FOG     WCI  27
PAYNESVILLE    CLOUDY    36  37 100 SW9       29.72S
AITKIN         MIX PCPN  36  30  80 S8        29.67F
PINE RIVER     MIX PCPN  32  32 100 S5        29.70F WCI  27
BRAINERD       LGT SNOW  32  32 100 S7        29.68S FOG     WCI  26
STAPLES        CLOUDY    32  32 100 SW9       29.67S WCI  24
LONG PRAIRIE   CLOUDY    32  32 100 SW7       29.69S FOG     WCI  26
LITTLE FALLS   CLOUDY    32  32 100 SW7       29.70F WCI  26
LITCHFIELD     PTSUNNY   39  36  87 SW6       29.73S
BUFFALO        CLOUDY    36  32  88 S7        29.74F
MAPLE LAKE     CLOUDY    36  35  94 S5        29.74S
HUTCHINSON     DRIZZLE   39  36  87 SW7       29.75S
$$
MNZ037-044-045-052-053-042200-
   East Central Minnesota

CITY           SKY/WX    TMP DP  RH WIND       PRES   REMARKS
PRINCETON      CLOUDY    36  34  93 S8        29.72F
MORA           CLOUDY    32  32 100 S7        29.73F FOG     WCI  26
CAMBRIDGE      CLOUDY    36  34  93 S6        29.71F
RUSH CITY      CLOUDY    32  32 100 S7        29.74F WCI  26
MOOSE LAKE     LGT SNOW  32  32 100 S6        29.70F WCI  26
HINCKLEY       LGT SNOW  32  32 100 S6        29.73F WCI  26
CLOQUET        LGT SNOW  30  28  93 SE5       29.71F WCI  25
MCGREGOR       CLOUDY    32  32 100 S7        29.69F WCI  26
$$
MNZ071>073-080-081-089-090-097-098-042200-
   Southwest Minnesota

CITY           SKY/WX    TMP DP  RH WIND       PRES   REMARKS
MONTEVIDEO     CLOUDY    39  34  81 NW13G20   29.76S
GRANITE FALLS  MOSUNNY   41  35  78 W13       29.77R
CANBY          MOSUNNY   41  32  70 NW15      29.77R
MARSHALL       SUNNY     42  32  67 W20       29.76S
REDWOOD FALLS  LGT RAIN  41  32  70 W9        29.75S
OLIVIA         MOSUNNY   39  34  81 W12       29.74S
PIPESTONE      SUNNY     41  34  75 W12G20    29.77S
WINDOM         SUNNY     43  34  70 W13G18    29.78R
WORTHINGTON    SUNNY     42  33  70 W20       29.78F
JACKSON        SUNNY     41  32  70 W15       29.79S
TRACY          SUNNY     42  34  72 W10G21    29.77S
SLAYTON        SUNNY     40  32  72 W14G22    29.78S
$$
MNZ065>067-074>077-082>085-091>093-042200-
   South Central Minnesota

CITY           SKY/WX    TMP DP  RH WIND       PRES   REMARKS
MANKATO        CLOUDY    39  35  86 SW10      29.78F
NEW ULM        PTSUNNY   41  36  81 SW9       29.76F
ST JAMES       SUNNY     43  36  75 SW13      29.79S
FAIRMONT       MOSUNNY   43  35  73 W13       29.79F
GLENCOE        CLOUDY    38  38 100 S8        29.75S
FARIBAULT      CLOUDY    36  34  93 S9        29.79S
OWATONNA       CLOUDY    36  32  87 S12       29.78F
WASECA         CLOUDY    36  34  93 SW12      29.79F
ALBERT LEA     CLOUDY    39  36  87 SW7       29.79F
$$
MNZ078>079-086>088-094>096-042200-
   Southeast Minnesota

CITY           SKY/WX    TMP DP  RH WIND       PRES   REMARKS
ROCHESTER      CLOUDY    33  31  92 SW16      29.81F WCI  23
RED WING       CLOUDY    36  32  87 SW3       29.79F
STANTON        CLOUDY    37  33  85 SW8       29.77F
DODGE CENTER   CLOUDY    34  30  86 SW12      29.79F WCI  25
WINONA         CLOUDY    34  32  93 SW3       29.84S
AUSTIN           N/A    N/A N/A N/A SW7       29.80F
PRESTON        CLOUDY    32  31  96 SW7       29.82S FOG     WCI  26
$$
ABBREVIATIONS USED IN REMARKS
   TC - TEMPERATURES IN CELSIUS
  WCI - WIND CHILL INDEX
   HX - HEAT INDEX
  VSB - VISIBILITY
$$




USA.gov is the U.S. government's official web portal to all federal, state and local government web resources and services.